Location: Unspecified
(0.0000°N, 0.0000°E)
Time: 21:33:32
(UTC+00:00)

DMSP 5D-2 F13 DEB - Pass Details

Date: 13 March 2026
Orbit: 780 x 797 km, 98.7° (Epoch: 11 April)

Event Time Altitude Azimuth Distance (km) Brightness Sun altitude
Rises 19:57:56 0° 192° (SSW) 3,266 ? -27.1°
Reaches altitude 10° 20:00:42 10° 206° (SSW) 2,338 ? -27.8°
Maximum altitude 20:04:40 23° 257° (WSW) 1,623 ? -28.8°
Drops below altitude 10° 20:08:40 10° 308° (NW) 2,339 ? -29.8°
Sets 20:11:26 0° 323° (NW) 3,267 ? -30.5°
